GW0416 Weather Reports


time (UTC)temp
C
wind
direction
speed
KPH
gust
KPH
rain 1hr
cm
rain 24hr
cm
rain mn
cm
humidity
%
barometer
mb
20260902201540 25 151 20.9 33.8 0.00 0.00 0.00 34 1005.3
20260902200037 25 179 17.7 32.2 0.00 0.00 0.00 37 1005.4
20260902194549 25 190 14.5 25.7 0.00 0.00 0.00 38 1005.4
20260902193037 24 158 16.1 24.1 0.00 0.00 0.00 38 1005.5
20260902191546 24 209 16.1 30.6 0.00 0.00 0.00 38 1005.7
20260902190036 24 160 19.3 32.2 0.00 0.00 0.00 37 1006.0
20260902184535 23 192 17.7 32.2 0.00 0.00 0.00 40 1006.1
20260902183045 23 166 20.9 32.2 0.00 0.00 0.00 40 1006.4
20260902181533 23 215 14.5 33.8 0.00 0.00 0.00 41 1006.4
20260902180037 23 175 20.9 33.8 0.00 0.00 0.00 43 1006.6
20260902174535 22 190 17.7 32.2 0.00 0.00 0.00 43 1006.8
20260902173050 22 193 22.5 33.8 0.00 0.00 0.00 44 1006.9
20260902171534 22 214 19.3 30.6 0.00 0.00 0.00 43 1006.9
20260902170038 22 175 16.1 25.7 0.00 0.00 0.00 46 1006.9
20260902164541 21 194 20.9 30.6 0.00 0.00 0.00 46 1006.9
20260902163034 21 229 19.3 29.0 0.00 0.00 0.00 47 1006.8
20260902161536 21 214 16.1 24.1 0.00 0.00 0.00 48 1006.8
20260902160042 20 228 12.9 25.7 0.00 0.00 0.00 50 1007.1
20260902154547 20 238 19.3 29.0 0.00 0.00 0.00 49 1007.3
20260902153037 20 236 22.5 33.8 0.00 0.00 0.00 50 1007.3
20260902151538 18 236 17.7 22.5 0.00 0.00 0.00 53 1007.6
20260902150038 18 259 8.0 16.1 0.00 0.00 0.00 53 1007.6
20260902144534 17 230 9.7 19.3 0.00 0.00 0.00 53 1007.9
20260902143037 16 248 3.2 6.4 0.00 0.00 0.00 56 1008.0
20260902141538 16 249 3.2 6.4 0.00 0.00 0.00 57 1008.1
20260902140039 15 230 4.8 9.7 0.00 0.00 0.00 58 1008.1
20260902134536 14 240 3.2 8.0 0.00 0.00 0.00 62 1007.9
20260902133038 13 239 6.4 11.3 0.00 0.00 0.00 63 1007.8
20260902131542 13 200 9.7 14.5 0.00 0.00 0.00 62 1007.8
20260902130049 13 217 6.4 16.1 0.00 0.00 0.00 65 1007.6
20260902124535 13 224 8.0 12.9 0.00 0.00 0.00 62 1007.6
20260902123035 12 305 4.8 12.9 0.00 0.00 0.00 66 1007.1
20260902121539 13 325 6.4 12.9 0.00 0.00 0.00 65 1007.3
20260902120034 13 304 9.7 14.5 0.00 0.00 0.00 66 1007.5
20260902114534 12 295 9.7 16.1 0.00 0.00 0.00 71 1007.8
20260902113035 12 280 12.9 20.9 0.00 0.00 0.00 69 1007.9
20260902111534 13 257 16.1 25.7 0.00 0.00 0.00 67 1008.0
20260902110042 13 238 16.1 25.7 0.00 0.00 0.00 67 1008.1
20260902104539 11 207 16.1 20.9 0.00 0.00 0.00 69 1008.0
20260902103038 12 205 11.3 16.1 0.00 0.00 0.00 65 1007.8
20260902101536 12 175 8.0 12.9 0.00 0.00 0.00 61 1008.0
20260902100035 13 156 6.4 11.3 0.00 0.00 0.00 61 1008.2
20260902094535 12 121 8.0 12.9 0.00 0.00 0.00 62 1008.2
20260902093040 14 130 0.0 8.0 0.00 0.00 0.00 56 1007.8
20260902091536 15 174 4.8 8.0 0.00 0.00 0.00 56 1008.2
20260902090037 13 127 3.2 6.4 0.00 0.00 0.00 59 1008.5
20260902084536 13 97 4.8 11.3 0.00 0.00 0.00 60 1008.6
20260902083039 14 92 8.0 11.3 0.00 0.00 0.00 57 1008.6
20260902081542 16 141 8.0 12.9 0.00 0.00 0.00 52 1008.7
20260902080047 16 139 6.4 14.5 0.00 0.00 0.00 52 1008.6
20260902074536 15 148 6.4 12.9 0.00 0.00 0.00 53 1008.6
20260902073037 16 128 8.0 11.3 0.00 0.00 0.00 51 1008.4
20260902071540 16 137 9.7 16.1 0.00 0.00 0.00 51 1008.5
20260902070034 16 153 6.4 12.9 0.00 0.00 0.00 51 1008.6
20260902064535 16 134 9.7 11.3 0.00 0.00 0.00 50 1008.7
20260902063037 17 135 6.4 12.9 0.00 0.00 0.00 48 1008.7
20260902061536 17 119 6.4 9.7 0.00 0.00 0.00 47 1008.9
20260902060038 17 143 4.8 8.0 0.00 0.00 0.00 47 1009.0
20260902054538 18 141 6.4 14.5 0.00 0.00 0.00 47 1009.0
20260902053038 17 155 8.0 14.5 0.00 0.00 0.00 47 1009.0
20260902051535 18 136 12.9 16.1 0.00 0.00 0.00 47 1009.0
20260902050036 17 134 11.3 17.7 0.00 0.00 0.00 47 1009.0
20260902044535 17 157 11.3 17.7 0.00 0.00 0.00 47 1009.1
20260902043042 18 146 9.7 17.7 0.00 0.00 0.00 46 1009.0
20260902041534 19 155 11.3 16.1 0.00 0.00 0.00 44 1009.1
20260902040038 20 135 12.9 17.7 0.00 0.00 0.00 43 1009.2
20260902034541 20 152 12.9 17.7 0.00 0.00 0.00 42 1009.3
20260902033038 20 146 12.9 16.1 0.00 0.00 0.00 40 1009.3
20260902031537 20 146 9.7 16.1 0.00 0.00 0.00 40 1009.4
20260902030045 20 157 8.0 14.5 0.00 0.00 0.00 38 1009.3
20260902024534 20 136 11.3 16.1 0.00 0.00 0.00 38 1009.2
20260902023042 21 147 11.3 16.1 0.00 0.00 0.00 38 1009.3
20260902021543 22 126 9.7 12.9 0.00 0.00 0.00 34 1009.1
20260902020037 23 131 11.3 14.5 0.00 0.00 0.00 32 1009.1
20260902014537 24 136 11.3 14.5 0.00 0.00 0.00 30 1009.1
20260902013034 25 132 11.3 16.1 0.00 0.00 0.00 28 1009.1
20260902011536 26 132 12.9 20.9 0.00 0.00 0.00 27 1009.0
20260902010034 27 161 12.9 20.9 0.00 0.00 0.00 24 1009.0
20260902004539 27 142 12.9 17.7 0.00 0.00 0.00 25 1009.1
20260902003037 27 128 11.3 19.3 0.00 0.00 0.00 25 1009.1
20260902001534 27 144 12.9 22.5 0.00 0.00 0.00 25 1009.3
20260902000037 27 129 17.7 25.7 0.00 0.00 0.00 25 1009.5
20260901234537 27 129 20.9 27.4 0.00 0.00 0.00 26 1009.4
20260901233036 27 153 17.7 25.7 0.00 0.00 0.00 26 1009.6
20260901231535 27 165 16.1 30.6 0.00 0.00 0.00 26 1009.8
20260901230039 27 165 17.7 35.4 0.00 0.00 0.00 26 1009.8
20260901224534 27 169 12.9 27.4 0.00 0.00 0.00 26 1010.0
20260901223038 27 172 16.1 30.6 0.00 0.00 0.00 26 1010.0
20260901221534 27 161 17.7 35.4 0.00 0.00 0.00 26 1010.3
20260901214533 26 179 16.1 29.0 0.00 0.00 0.00 26 1010.5
20260901213101 27 161 11.3 30.6 0.00 0.00 0.00 26 1010.7
20260901211537 26 173 14.5 32.2 0.00 0.00 0.00 27 1010.8
20260901210035 26 152 14.5 32.2 0.00 0.00 0.00 26 1011.0
20260901204539 26 155 20.9 32.2 0.00 0.00 0.00 26 1011.0
20260901203052 26 150 19.3 33.8 0.00 0.00 0.00 26 1011.2